Wetbulb
77.46 78.16 79.22 75.99 66.03 63.68 58.68 60.46 65.15 63.16 62.95 66.94 66.10 65.45 65.72 67.18 64.53 61.40 69.83 70.61 72.93 73.78 76.11 76.46 77.85 77.24 77.03 77.37 77.12 77.34 77.35 77.19 77.03 77.01 76.79 76.84 76.90 76.40 76.40 76.19 76.10 76.10 76.44 76.39 74.89 76.35 76.39 76.65 75.89
78.73 76.89 77.31 72.75 61.85 56.76 58.02 62.99 62.26 64.98 66.66 67.93 67.55 67.23 66.70 66.06 69.94 69.40 68.73 71.21 73.87 74.09 75.61 76.38 77.88 78.17 77.24 77.34 77.78 77.14 77.01 76.98 76.95 76.76 76.76 76.63 76.49 76.13 76.19 76.19 76.32 76.35 76.51 76.10 76.16 75.59 76.57 76.53 76.19
78.37 77.91 72.15 66.51 61.34 57.46 57.89 63.41 64.70 66.18 67.22 66.42 66.11 69.02 67.96 67.28 69.64 68.72 71.38 71.78 73.95 74.14 75.43 77.54 77.99 77.57 77.75 77.11 77.63 77.51 77.26 77.10 77.03 76.99 76.57 76.66 76.41 76.68 76.83 76.44 76.35 76.10 76.50 76.25 76.49 76.16 75.70 75.53 76.08
78.03 76.41 70.47 61.94 59.03 61.83 62.86 64.95 66.20 65.20 66.29 66.82 66.51 64.87 68.86 72.07 69.45 72.13 71.78 72.34 74.23 74.10 75.20 76.92 77.63 77.63 77.35 77.83 77.01 77.47 77.57 77.20 76.87 76.60 76.59 77.31 76.17 76.44 76.64 76.60 76.63 76.52 76.28 76.02 76.07 76.05 76.38 75.47 75.67
77.98 71.62 63.17 60.06 60.23 62.62 65.26 66.44 66.88 65.15 65.23 65.27 64.86 63.76 66.23 70.78 72.67 72.90 72.02 72.56 73.03 73.44 75.31 76.56 77.81 77.85 77.55 77.02 77.64 77.31 77.01 76.69 76.49 77.01 76.69 77.18 76.53 76.47 76.58 76.44 76.47 76.50 76.22 75.86 76.14 76.22 75.99 75.22 75.39
70.86 68.59 59.99 57.36 59.86 62.82 65.36 67.59 67.19 65.87 66.33 65.80 64.75 65.38 67.54 72.40 71.92 72.98 73.91 73.96 72.96 73.18 75.16 75.81 77.32 77.96 78.04 75.92 76.46 77.12 77.14 76.82 76.89 77.36 76.84 76.30 76.47 76.39 76.25 76.17 76.09 75.86 76.14 75.45 75.91 75.69 76.07 75.27 74.78
67.89 64.40 59.62 60.15 60.08 61.36 64.16 68.24 66.51 65.78 65.42 64.78 66.36 64.01 68.44 70.88 72.49 73.50 74.23 75.11 74.15 74.08 75.29 77.24 76.23 78.55 77.31 76.67 77.09 77.50 77.34 76.95 76.35 76.11 76.33 76.11 76.31 75.92 75.86 75.00 75.42 75.30 75.04 75.69 75.50 75.93 74.86 74.50 73.98
69.55 66.22 59.47 60.87 60.17 60.82 64.74 67.06 67.40 66.15 65.81 68.44 68.54 64.88 65.55 71.31 73.34 73.87 74.37 74.83 74.42 74.73 75.25 76.27 76.29 78.51 76.57 77.89 77.11 77.02 76.53 76.60 76.90 76.88 77.26 76.71 76.77 76.44 76.55 75.39 74.95 74.34 74.37 74.32 75.67 75.51 75.76 75.13 75.32
69.97 62.41 58.20 59.60 60.48 62.64 65.93 65.63 67.84 68.89 67.27 67.13 68.42 68.69 69.94 73.02 73.62 72.93 73.02 73.48 74.14 74.48 75.05 75.48 75.49 76.00 75.72 77.03 78.10 78.27 77.37 77.54 77.82 77.34 76.77 76.50 76.15 76.65 76.37 75.34 74.35 73.98 73.90 74.53 74.85 74.77 74.97 75.20 75.99
65.28 62.16 60.06 63.35 64.56 63.86 65.76 66.40 66.83 66.32 65.90 66.39 68.23 71.12 72.04 72.25 72.09 71.13 71.10 71.36 72.42 73.26 74.51 75.07 75.34 75.15 75.85 75.79 77.63 77.01 76.27 75.63 75.67 76.14 77.27 76.58 77.37 75.94 75.01 74.95 74.16 73.96 74.28 74.50 74.03 75.11 75.92 76.28 74.25
63.28 60.62 62.72 63.37 65.73 65.91 65.67 65.85 67.21 66.18 64.06 66.91 67.51 69.81 70.31 70.27 70.62 70.38 70.48 71.35 71.90 73.35 74.08 74.91 75.74 76.04 75.49 75.53 76.32 77.73 76.44 76.03 75.98 77.75 77.37 77.35 76.55 76.48 76.05 75.39 75.62 75.71 75.23 76.32 75.09 75.03 74.52 74.54 75.00
60.98 62.77 64.85 65.82 66.41 65.64 64.82 66.09 65.22 66.33 66.27 68.59 70.63 71.23 70.62 69.46 68.86 69.21 69.35 70.18 71.19 72.54 73.46 74.37 75.70 76.82 76.55 75.39 75.81 75.92 75.85 75.92 76.05 76.41 77.78 77.30 76.15 75.23 74.85 75.51 76.37 77.25 77.04 73.77 72.90 73.29 74.91 74.86 74.69
61.17 63.51 65.49 66.41 66.00 66.11 66.06 64.80 65.62 66.40 68.22 70.57 71.15 70.83 70.02 69.28 68.65 69.19 69.99 70.75 71.67 71.85 72.96 73.72 75.26 76.63 77.17 76.73 75.40 75.99 75.98 75.93 76.57 76.82 77.42 77.66 76.77 76.99 76.88 76.16 74.95 77.24 75.16 73.98 72.35 71.90 71.75 73.08 74.52
62.07 63.98 64.63 65.52 65.79 65.69 64.39 65.14 66.58 67.51 69.85 69.74 70.16 69.68 69.63 68.45 68.36 69.65 70.30 70.90 72.04 72.42 72.49 73.29 74.50 76.12 77.22 77.02 76.51 75.60 76.18 76.41 76.83 77.03 77.13 77.73 77.21 77.04 77.00 78.41 79.60 76.61 76.78 75.94 74.60 72.43 73.22 74.39 75.32
62.07 61.22 63.97 64.39 64.71 64.35 65.76 63.34 63.92 68.60 69.61 68.80 68.99 69.34 69.46 68.76 69.84 70.31 71.57 72.31 73.87 73.87 73.06 72.73 73.88 74.88 76.29 76.74 76.70 76.02 75.48 75.47 75.74 76.19 77.29 78.14 78.04 77.78 78.28 77.40 77.29 77.08 80.09 77.33 76.18 73.53 72.52 74.20 75.54
60.42 61.00 57.59 62.27 64.00 64.94 64.47 59.85 66.15 68.56 68.60 67.74 68.36 68.60 68.88 70.16 70.90 72.15 73.06 72.53 74.04 73.55 73.89 73.66 72.90 73.44 75.14 75.63 76.15 76.08 76.01 76.03 76.28 76.69 77.26 77.76 78.70 79.02 78.60 77.53 76.65 77.36 77.14 76.49 76.81 76.12 74.79 74.56 74.84
59.64 56.37 56.35 58.62 63.72 63.51 63.25 60.69 65.32 68.08 68.37 67.36 68.05 68.43 68.80 69.52 71.07 72.48 73.40 73.92 73.18 72.33 74.33 72.11 73.81 73.48 74.75 75.80 75.85 75.76 76.37 75.87 76.37 77.27 77.42 78.07 78.23 78.29 79.29 77.50 77.08 77.94 76.57 76.13 76.80 76.61 76.65 74.39 73.12
55.95 55.88 56.78 56.62 59.88 62.62 61.82 61.74 65.33 67.58 66.99 67.40 67.75 68.48 68.78 69.24 70.09 72.08 73.08 73.64 74.24 74.88 73.39 74.23 74.18 74.76 75.40 75.72 76.10 75.11 75.30 76.45 77.24 77.06 77.28 77.94 78.23 77.84 78.35 76.99 77.49 77.61 77.42 76.56 77.06 75.78 76.44 75.21 74.97
58.67 57.57 56.33 58.22 59.69 59.97 60.17 60.85 62.50 66.91 67.00 66.45 67.02 67.84 68.37 69.19 71.17 72.04 73.00 73.55 73.75 74.52 75.32 74.62 75.43 76.03 75.71 74.79 74.62 74.98 74.76 75.91 76.38 77.09 78.39 78.85 78.29 78.19 77.75 77.28 77.69 76.70 77.08 75.84 75.27 74.99 74.74 75.47 75.72
58.68 57.65 57.03 58.45 59.51 58.22 60.30 60.03 62.37 64.34 66.60 67.28 67.12 67.30 67.64 68.74 69.72 70.78 72.05 72.76 72.98 73.87 74.92 75.91 75.59 76.80 76.53 75.65 75.78 75.56 75.84 76.16 77.02 77.77 77.75 78.60 77.98 78.07 77.53 77.54 77.33 77.17 75.14 75.50 75.17 74.73 72.94 72.42 74.79
57.53 57.47 57.37 55.92 58.26 59.57 58.78 58.68 60.60 64.15 65.89 67.35 68.10 68.50 68.70 68.67 69.14 70.30 70.85 71.15 71.96 73.02 74.40 75.57 76.31 76.38 76.78 76.71 76.64 76.74 77.21 79.58 76.80 75.47 77.37 77.44 77.62 77.92 78.45 78.18 76.94 76.22 74.68 71.50 73.27 73.55 73.69 70.37 72.83
54.68 59.64 57.70 55.91 55.36 53.28 58.33 52.54 59.34 61.54 63.63 65.96 66.92 67.97 68.20 69.03 69.91 70.66 71.09 71.78 71.91 72.70 74.47 75.81 76.65 76.81 76.79 77.41 76.25 77.02 77.62 73.36 75.63 75.91 78.28 78.57 77.60 77.26 78.10 77.56 76.38 74.16 72.58 73.23 72.66 73.03 74.47 73.70 70.28
56.02 58.65 57.07 56.36 55.68 55.85 55.96 54.49 57.75 60.93 59.35 61.84 67.04 67.47 68.14 69.51 69.86 70.13 71.21 71.95 73.30 73.56 74.30 75.17 76.32 77.09 77.49 77.39 77.45 76.38 76.29 75.12 76.66 75.30 76.61 78.01 77.47 77.29 76.78 75.06 73.58 72.89 71.57 73.45 73.52 72.58 71.99 70.89 70.98
57.96 55.83 56.19 56.39 55.88 51.19 54.63 55.25 55.50 58.76 59.45 61.09 64.65 67.01 68.30 68.64 70.48 70.79 72.29 73.37 73.77 74.28 74.11 74.56 75.66 76.69 77.29 77.54 77.44 77.41 76.43 75.78 74.99 75.23 75.05 77.73 76.69 75.41 73.89 73.08 73.02 73.22 73.80 73.00 71.34 71.53 70.75 70.24 70.62
55.23 53.03 48.70 47.84 49.62 49.39 56.05 54.77 56.53 60.25 61.48 61.57 62.40 65.18 68.33 69.56 70.36 71.07 71.78 72.42 73.37 73.36 73.77 74.30 75.33 75.83 77.15 77.45 77.44 77.52 77.77 77.27 76.46 76.61 75.45 75.79 73.48 71.16 72.75 73.33 73.75 73.54 74.67 72.61 72.07 71.95 70.81 70.24 69.47
52.56 52.07 48.05 44.48 46.79 50.65 56.07 52.12 55.96 60.66 62.11 63.32 63.97 65.44 68.46 69.54 70.41 70.98 71.49 72.49 73.45 73.50 73.89 74.25 75.01 75.56 76.37 76.74 77.34 78.27 78.68 76.51 76.50 76.54 75.78 74.00 71.31 71.63 74.76 73.67 73.89 73.97 74.25 73.34 73.34 72.27 70.90 71.32 70.19
52.26 50.92 54.11 50.19 53.06 51.05 53.41 55.45 59.25 60.52 60.55 62.05 63.04 63.61 67.03 68.88 69.80 70.58 71.41 71.97 72.47 73.69 74.04 74.23 74.90 75.55 75.47 75.44 77.31 77.69 78.17 77.73 76.89 76.96 75.75 72.85 72.96 74.04 74.69 73.91 73.72 74.54 74.02 73.01 72.47 71.51 71.40 71.34 70.72
52.85 55.95 50.13 51.41 47.11 46.36 50.64 52.31 53.51 57.53 58.68 60.67 61.39 62.88 64.79 68.47 69.70 70.59 71.52 72.04 72.82 73.82 74.71 74.78 75.13 74.96 75.06 75.63 76.44 76.66 77.26 78.22 77.56 76.06 74.59 73.32 74.71 74.99 75.26 74.23 74.49 74.50 74.45 73.54 72.76 71.48 71.62 70.72 69.15
52.06 52.27 53.53 54.32 52.59 48.52 48.09 51.37 58.20 57.79 59.48 60.45 61.27 64.08 65.57 66.69 69.38 70.46 71.68 72.56 73.30 73.99 74.53 74.62 74.68 74.24 74.48 75.31 76.23 76.34 77.16 77.81 76.86 75.29 73.92 74.80 75.47 75.86 75.29 75.38 74.93 73.69 73.26 72.96 72.32 71.57 70.34 69.19 68.01
54.09 52.71 53.24 50.72 50.54 52.16 51.14 51.37 59.00 59.28 59.93 60.88 62.82 65.03 67.87 68.06 69.45 70.89 71.68 72.52 73.62 73.91 74.52 74.94 74.87 74.84 75.38 75.94 75.94 76.11 77.55 77.12 76.97 75.06 73.43 74.90 75.39 75.57 75.84 74.95 73.42 72.59 71.85 71.43 70.57 69.43 68.36 67.21 66.41
MSLP
1007.72 1007.33 1007.15 1006.56 1005.02 1003.11 1003.15 1003.80 1003.49 1003.83 1004.05 1004.72 1005.26 1005.62 1006.01 1006.80 1007.12 1008.26 1009.70 1010.23 1011.08 1011.68 1012.85 1013.78 1014.34 1014.55 1014.73 1014.86 1015.09 1015.26 1015.46 1015.64 1015.74 1015.83 1015.97 1016.08 1016.14 1016.32 1016.45 1016.61 1016.69 1016.74 1016.72 1016.83 1016.93 1017.03 1017.09 1017.21 1017.32
1007.01 1007.35 1006.89 1004.95 1003.24 1002.51 1003.30 1003.72 1003.71 1004.02 1004.42 1004.98 1005.70 1006.13 1006.39 1007.51 1008.47 1009.30 1009.98 1010.81 1011.28 1011.72 1012.62 1013.40 1014.59 1014.69 1014.89 1015.09 1015.16 1015.41 1015.65 1015.86 1015.90 1016.05 1016.20 1016.29 1016.39 1016.51 1016.63 1016.75 1016.85 1016.90 1016.94 1016.97 1017.05 1017.14 1017.22 1017.39 1017.48
1007.01 1006.74 1004.99 1003.72 1002.86 1002.75 1003.27 1003.83 1004.21 1004.76 1004.99 1005.14 1005.91 1006.37 1007.08 1008.50 1009.46 1009.58 1010.22 1011.10 1011.41 1012.00 1012.44 1013.80 1014.73 1014.92 1015.05 1015.19 1015.33 1015.55 1015.79 1015.93 1016.13 1016.30 1016.40 1016.46 1016.57 1016.66 1016.76 1016.88 1016.95 1017.06 1017.12 1017.13 1017.23 1017.29 1017.41 1017.51 1017.68
1006.08 1005.35 1004.47 1002.89 1002.82 1003.64 1003.62 1004.12 1004.37 1004.79 1005.17 1005.57 1005.93 1006.90 1008.63 1009.25 1009.43 1009.89 1010.85 1011.31 1011.64 1012.22 1012.53 1014.45 1014.87 1015.05 1015.14 1015.33 1015.59 1015.77 1015.92 1016.12 1016.33 1016.48 1016.55 1016.57 1016.66 1016.76 1016.88 1017.04 1017.10 1017.17 1017.20 1017.27 1017.36 1017.43 1017.52 1017.61 1017.78
1005.63 1004.11 1002.06 1002.13 1002.88 1003.54 1004.00 1004.32 1004.49 1004.44 1005.10 1005.60 1006.08 1007.23 1008.73 1009.93 1010.24 1010.67 1011.13 1011.38 1011.71 1012.20 1012.93 1014.20 1014.98 1015.16 1015.30 1015.53 1015.70 1015.87 1016.09 1016.32 1016.55 1016.69 1016.74 1016.74 1016.75 1016.84 1017.10 1017.14 1017.26 1017.33 1017.40 1017.45 1017.47 1017.53 1017.65 1017.74 1017.87
1003.76 1003.30 1001.47 1001.75 1002.63 1003.39 1003.92 1004.40 1004.52 1004.72 1005.32 1006.04 1006.54 1007.36 1009.07 1010.17 1010.39 1010.82 1011.27 1011.43 1011.75 1012.37 1012.86 1014.00 1015.04 1015.29 1015.48 1015.68 1015.87 1016.01 1016.26 1016.46 1016.68 1016.74 1016.88 1017.10 1017.04 1017.09 1017.20 1017.26 1017.37 1017.47 1017.50 1017.56 1017.61 1017.66 1017.75 1017.85 1017.91
1003.54 1002.51 1001.98 1002.19 1002.61 1003.07 1003.80 1004.35 1004.37 1004.67 1005.31 1005.80 1006.48 1007.11 1009.14 1009.91 1010.46 1010.93 1011.30 1011.56 1011.95 1012.39 1012.74 1013.66 1014.43 1015.20 1015.68 1015.87 1016.07 1016.18 1016.36 1016.56 1016.71 1016.80 1016.93 1017.09 1017.19 1017.23 1017.32 1017.44 1017.56 1017.62 1017.58 1017.64 1017.72 1017.73 1017.83 1017.93 1017.94
1003.36 1002.69 1001.65 1001.93 1002.46 1003.09 1003.98 1004.33 1004.72 1004.78 1005.61 1006.26 1006.46 1006.80 1008.44 1009.64 1010.52 1010.95 1011.34 1011.59 1012.16 1012.54 1013.10 1013.49 1014.22 1014.47 1015.11 1015.39 1016.16 1016.33 1016.52 1016.65 1016.72 1016.82 1016.92 1017.12 1017.17 1017.25 1017.31 1017.51 1017.64 1017.69 1017.63 1017.63 1017.73 1017.80 1017.83 1017.83 1017.91
1003.41 1001.88 1001.44 1001.86 1002.33 1003.19 1004.21 1004.32 1005.06 1005.52 1005.90 1006.36 1006.81 1006.74 1007.57 1009.84 1010.50 1010.88 1011.32 1011.65 1012.26 1012.70 1012.96 1013.12 1013.83 1014.14 1014.59 1014.52 1015.52 1016.27 1016.56 1016.65 1016.73 1016.78 1017.01 1017.11 1017.12 1016.73 1017.05 1017.21 1017.51 1017.57 1017.59 1017.61 1017.59 1017.61 1017.59 1017.62 1017.64
1002.47 1001.89 1002.05 1002.44 1002.66 1003.04 1003.95 1004.31 1005.03 1005.55 1005.97 1006.66 1007.20 1007.67 1008.88 1009.87 1010.42 1010.75 1011.02 1011.44 1012.04 1012.59 1012.83 1012.92 1013.22 1013.56 1014.25 1014.28 1015.06 1015.59 1015.70 1015.74 1015.88 1016.05 1016.51 1016.80 1017.07 1017.00 1016.84 1016.93 1017.26 1017.31 1017.28 1017.30 1017.35 1017.44 1017.42 1017.44 1016.16
1002.42 1002.13 1002.37 1002.66 1003.09 1003.16 1003.88 1004.42 1004.90 1005.20 1005.44 1005.83 1006.80 1008.00 1009.03 1009.74 1010.24 1010.54 1010.92 1011.39 1011.83 1012.49 1012.80 1012.98 1013.33 1013.72 1014.11 1014.40 1014.86 1014.95 1015.00 1015.28 1015.64 1016.24 1016.34 1016.25 1017.21 1016.93 1017.13 1016.66 1016.32 1016.35 1016.72 1016.43 1017.05 1016.61 1016.34 1016.01 1015.73
1002.32 1002.38 1002.73 1003.12 1003.58 1003.54 1003.78 1004.34 1004.68 1004.98 1005.43 1005.61 1006.75 1007.93 1008.65 1009.23 1009.67 1010.02 1010.52 1011.12 1011.82 1012.47 1012.83 1013.21 1013.54 1014.08 1014.39 1014.46 1014.91 1014.61 1014.77 1015.21 1015.22 1015.50 1016.07 1016.02 1015.98 1016.97 1017.18 1016.12 1016.28 1016.15 1016.82 1016.95 1017.23 1017.24 1016.76 1016.26 1016.03
1002.24 1002.53 1002.83 1003.28 1003.55 1003.59 1004.14 1004.33 1004.56 1005.16 1005.61 1006.24 1007.14 1008.11 1008.57 1008.89 1009.37 1009.72 1010.24 1010.96 1011.83 1012.45 1012.84 1013.24 1013.62 1014.21 1014.54 1015.03 1014.74 1014.66 1014.84 1015.08 1014.88 1015.27 1015.50 1015.72 1015.64 1015.59 1015.83 1016.11 1016.52 1015.99 1016.73 1016.98 1017.12 1017.19 1017.23 1016.89 1015.97
1002.57 1002.63 1002.95 1003.15 1003.41 1003.80 1003.88 1004.34 1004.57 1005.36 1005.98 1006.69 1007.33 1007.95 1008.37 1008.63 1009.06 1009.67 1010.22 1010.78 1011.54 1012.13 1012.53 1012.99 1013.59 1014.04 1014.42 1014.75 1015.13 1015.08 1015.21 1015.04 1015.20 1015.05 1015.17 1015.63 1015.61 1015.31 1015.24 1015.43 1015.78 1015.89 1016.05 1016.26 1016.62 1016.70 1016.39 1016.19 1015.39
1002.45 1002.18 1002.63 1002.93 1003.09 1003.35 1003.73 1004.12 1004.19 1005.17 1005.92 1006.55 1007.22 1007.78 1008.03 1008.42 1009.03 1009.56 1010.12 1010.67 1011.31 1011.71 1012.14 1012.68 1013.32 1013.59 1014.37 1014.60 1014.81 1015.02 1014.90 1014.76 1014.92 1014.92 1015.32 1015.56 1015.57 1015.24 1015.45 1014.99 1014.94 1014.61 1015.08 1015.44 1015.95 1016.22 1016.25 1015.76 1014.99
1002.02 1001.91 1001.39 1002.59 1002.84 1003.20 1003.50 1002.50 1003.84 1005.02 1005.52 1006.01 1006.74 1007.38 1007.80 1008.13 1008.65 1009.34 1009.88 1010.80 1011.33 1011.71 1012.03 1012.72 1012.97 1013.16 1013.87 1014.23 1014.48 1014.52 1014.65 1014.60 1014.62 1014.67 1014.73 1015.05 1015.21 1015.28 1015.16 1014.81 1014.51 1014.47 1014.71 1014.83 1015.38 1015.65 1015.40 1015.18 1014.91
1001.67 1000.96 1001.60 1001.97 1002.65 1002.64 1002.77 1002.13 1003.65 1004.60 1004.85 1005.48 1006.23 1006.81 1007.27 1007.70 1008.25 1008.87 1009.47 1010.25 1011.06 1012.08 1012.20 1013.05 1012.90 1012.97 1013.43 1014.12 1014.27 1014.49 1014.49 1014.67 1014.42 1014.29 1014.29 1014.43 1014.75 1014.85 1015.21 1014.67 1014.30 1014.78 1014.35 1014.76 1015.09 1015.29 1015.06 1014.76 1014.94
1000.89 1001.15 1001.54 1001.73 1002.25 1002.39 1002.01 1001.79 1002.62 1003.89 1004.10 1004.59 1005.32 1006.07 1006.56 1007.00 1007.40 1008.12 1008.91 1009.55 1010.08 1011.09 1012.39 1012.62 1012.65 1012.97 1013.46 1013.82 1014.28 1014.22 1014.25 1014.25 1014.07 1014.04 1014.03 1014.33 1014.76 1014.92 1014.82 1014.33 1014.55 1014.55 1014.74 1014.55 1014.86 1014.98 1014.66 1014.58 1014.28
1001.80 1001.69 1001.47 1001.79 1002.35 1002.14 1001.43 1001.28 1001.31 1002.53 1003.57 1003.88 1004.36 1005.11 1005.56 1006.02 1006.49 1007.24 1008.20 1008.94 1009.61 1010.13 1011.05 1011.78 1012.29 1012.61 1013.21 1013.57 1013.63 1013.73 1013.65 1013.79 1013.86 1013.80 1014.10 1014.50 1014.23 1014.60 1014.83 1014.17 1014.57 1014.54 1014.82 1014.67 1014.87 1014.80 1014.78 1014.49 1014.47
1001.93 1001.55 1001.17 1001.50 1002.01 1001.93 1001.15 1000.84 1000.81 1001.27 1002.54 1003.06 1003.47 1003.96 1004.69 1005.16 1005.76 1006.50 1007.34 1008.15 1008.96 1009.66 1010.42 1011.33 1011.93 1012.55 1013.12 1013.10 1013.25 1013.25 1013.41 1013.49 1013.69 1013.95 1014.21 1014.61 1014.33 1014.51 1014.42 1014.54 1014.38 1014.79 1014.65 1014.51 1014.56 1014.75 1014.28 1013.41 1013.46
1001.53 1001.28 1000.88 1001.60 1001.67 1001.28 1001.17 1000.15 1000.28 1001.09 1001.78 1002.40 1002.82 1003.18 1003.71 1004.35 1004.93 1005.54 1006.39 1007.16 1007.93 1008.82 1009.72 1010.53 1011.51 1012.07 1012.66 1012.82 1013.17 1013.50 1013.63 1014.09 1014.20 1014.26 1014.46 1014.46 1014.50 1014.56 1014.62 1014.60 1014.72 1014.75 1014.71 1014.15 1014.66 1014.23 1014.24 1013.58 1013.38
1000.96 1001.06 1001.72 1001.80 1001.64 1000.51 1000.97 999.56 999.28 1000.02 1000.79 1001.48 1001.80 1002.19 1002.52 1003.30 1004.09 1004.58 1005.04 1006.14 1007.00 1007.84 1008.94 1009.88 1010.86 1011.72 1012.30 1012.72 1012.73 1013.05 1013.15 1013.47 1013.65 1013.98 1014.21 1014.41 1014.41 1014.67 1014.79 1014.76 1014.76 1014.90 1014.70 1014.89 1014.50 1014.30 1014.54 1014.27 1014.23
1001.17 1001.29 1001.65 1001.47 1001.24 1000.56 1000.06 999.75 998.56 999.16 999.06 999.09 1000.47 1001.05 1001.69 1002.18 1003.04 1003.79 1004.25 1004.88 1006.01 1007.17 1008.23 1009.28 1010.35 1011.22 1011.85 1012.34 1012.54 1012.79 1013.14 1013.09 1013.32 1013.98 1014.29 1014.44 1014.68 1014.65 1014.79 1014.85 1014.93 1015.04 1014.69 1014.96 1015.14 1015.10 1014.90 1014.26 1014.22
1001.88 1001.88 1001.75 1001.34 1000.99 999.88 999.41 999.13 998.10 997.68 998.28 998.58 999.17 999.96 1000.64 1001.50 1002.38 1003.06 1003.99 1004.62 1005.78 1006.88 1008.03 1008.88 1009.86 1010.64 1011.31 1011.93 1012.39 1012.59 1012.69 1013.07 1013.23 1013.71 1013.84 1014.16 1014.29 1014.61 1014.96 1015.02 1015.24 1015.38 1015.21 1015.28 1015.28 1015.42 1015.31 1015.14 1014.74
1001.82 1001.36 1000.62 1000.36 999.86 999.22 998.70 998.96 998.14 997.80 997.80 998.06 998.59 999.13 999.92 1000.66 1001.83 1002.51 1003.29 1004.24 1005.57 1006.53 1007.44 1008.52 1009.52 1010.09 1010.68 1011.35 1011.83 1012.31 1012.65 1012.90 1013.11 1013.37 1013.11 1013.39 1013.82 1014.26 1015.08 1015.24 1015.27 1015.27 1015.51 1015.59 1015.57 1015.66 1015.46 1015.24 1015.00
1001.06 1000.47 999.73 999.13 998.68 998.06 998.45 998.49 997.73 997.68 997.94 998.06 998.35 998.90 999.49 1000.04 1000.96 1001.91 1002.77 1003.83 1005.04 1005.89 1007.02 1007.90 1008.95 1009.77 1010.42 1011.01 1011.42 1011.88 1012.41 1012.56 1012.65 1013.09 1013.25 1013.43 1013.75 1014.34 1015.10 1015.36 1015.37 1015.52 1015.56 1015.61 1015.64 1015.34 1015.49 1015.63 1015.26
1000.24 1000.24 999.70 998.96 998.46 998.43 997.67 997.70 997.87 997.55 997.29 997.23 997.40 998.11 998.93 999.71 1000.37 1001.29 1002.17 1003.33 1004.31 1005.47 1006.53 1007.53 1008.58 1009.65 1010.42 1010.90 1011.41 1011.62 1012.15 1012.40 1012.44 1013.27 1013.73 1013.94 1014.30 1014.62 1015.18 1015.34 1015.47 1015.56 1015.66 1015.84 1015.91 1015.52 1015.75 1015.65 1015.33
1000.46 1000.02 999.79 999.56 998.55 998.10 997.81 997.60 997.14 997.08 997.07 996.85 996.73 997.29 997.82 999.18 1000.13 1000.88 1001.73 1002.67 1003.81 1004.96 1006.33 1007.54 1008.52 1009.35 1010.01 1010.55 1011.32 1011.86 1012.21 1012.51 1013.17 1013.58 1013.92 1014.40 1014.75 1014.96 1015.31 1015.38 1015.50 1015.57 1015.70 1015.94 1016.05 1015.56 1015.78 1015.88 1015.60
1000.55 1000.00 999.56 998.62 998.33 997.76 997.22 996.57 996.44 996.88 996.89 996.85 997.09 997.46 997.95 998.52 999.55 1000.40 1001.38 1002.50 1003.88 1004.89 1005.92 1007.21 1008.21 1008.99 1009.75 1010.20 1010.94 1011.56 1011.91 1012.65 1012.98 1013.41 1013.95 1014.45 1014.91 1015.21 1015.51 1015.61 1015.61 1015.73 1015.78 1016.00 1016.11 1016.18 1016.24 1016.17 1016.16
999.29 999.09 998.85 998.49 998.46 998.37 997.65 996.62 996.37 996.48 996.66 996.70 997.20 997.60 998.38 998.84 999.31 1000.32 1001.21 1002.75 1004.02 1005.13 1006.22 1007.28 1008.18 1008.90 1009.58 1010.34 1011.07 1011.49 1011.96 1012.58 1013.13 1013.34 1013.70 1014.28 1014.82 1015.30 1015.51 1015.88 1016.01 1016.10 1016.18 1016.34 1016.36 1016.42 1016.55 1016.68 1016.56
Wind_Speed
14 9 3 4 5 4 10 8 3 8 5 4 9 2 8 10 8 7 17 13 18 17 17 14 10 13 12 11 13 13 13 13 12 12 11 10 10 9 9 7 6 6 6 7 7 7 8 8 9
8 7 4 4 2 9 10 6 9 9 6 8 8 4 3 11 11 15 17 16 17 16 16 16 11 12 13 12 13 13 13 12 11 10 9 9 9 8 7 7 6 6 7 6 7 7 8 9 8
6 3 5 2 5 9 9 8 10 10 8 7 5 5 4 6 9 17 17 20 17 15 14 16 12 11 13 12 11 12 12 12 11 9 9 9 8 6 7 6 7 6 7 6 7 8 7 7 7
5 6 5 4 9 10 9 5 8 8 7 3 6 8 8 5 15 10 20 18 15 14 14 16 12 12 11 11 11 10 10 10 9 8 5 10 7 6 6 7 7 7 7 8 7 8 8 6 7
7 4 1 8 9 8 5 3 3 3 6 6 0 8 10 7 10 19 19 16 16 14 14 14 11 10 12 10 9 9 9 8 8 7 7 6 7 6 6 7 6 5 6 6 6 6 7 6 6
5 4 4 11 11 6 4 3 2 6 6 8 11 14 9 11 16 18 17 15 15 13 14 15 12 10 11 10 10 9 9 8 6 7 6 5 5 5 5 6 5 5 4 4 5 5 6 5 4
6 5 9 7 8 6 6 4 1 4 7 9 10 10 11 14 16 16 15 14 14 13 13 13 13 11 10 10 9 8 9 7 7 6 6 4 5 4 4 3 3 4 3 3 3 4 5 4 3
5 5 4 6 9 8 5 3 3 2 10 12 4 6 12 17 17 16 14 14 14 13 13 11 11 12 10 12 10 9 8 8 7 5 4 3 4 4 5 4 4 3 2 2 4 4 4 4 4
3 6 6 8 7 6 5 5 3 2 10 3 3 4 19 20 18 17 14 14 13 11 13 12 13 11 9 9 11 10 8 5 6 8 6 7 2 3 5 2 3 3 3 3 3 5 6 6 8
6 4 9 6 3 3 6 3 7 5 9 6 8 12 21 21 19 17 16 15 15 14 13 12 12 12 10 6 11 7 7 8 6 4 6 1 3 3 5 3 3 5 5 5 5 6 7 9 9
3 7 10 6 2 4 7 5 2 4 6 6 11 19 21 21 18 17 15 14 14 13 11 10 10 9 10 6 5 6 5 4 5 5 5 6 2 1 4 4 5 5 7 4 6 6 8 8 5
6 7 7 3 4 5 7 8 5 1 5 3 13 20 20 20 19 17 15 14 13 13 12 11 11 8 8 6 6 5 4 4 4 5 5 4 5 4 4 5 5 4 3 3 3 5 10 9 9
5 9 5 4 5 6 7 6 5 7 8 13 16 18 18 17 17 15 13 12 12 13 13 12 12 10 9 7 5 4 4 5 5 4 5 4 5 3 5 4 5 5 3 4 4 4 5 10 8
8 5 3 2 6 7 5 6 6 7 12 14 17 17 16 16 17 14 13 12 12 12 13 12 13 12 11 9 7 5 5 5 4 4 4 5 6 5 5 5 6 6 5 6 5 4 6 7 9
4 4 5 2 3 4 4 8 6 12 13 16 15 16 15 16 16 15 14 12 13 12 12 13 13 13 11 10 9 7 6 7 5 5 5 6 6 5 6 6 5 5 4 5 6 6 5 9 9
7 6 7 6 3 4 7 6 11 14 15 16 16 16 15 17 17 15 14 11 10 7 11 12 11 13 13 10 8 7 7 5 5 5 5 5 5 5 6 5 5 4 5 4 6 6 6 7 6
6 4 3 5 2 2 6 6 8 14 15 15 16 17 15 16 16 16 15 15 14 6 9 7 12 12 12 10 8 8 6 6 6 5 5 5 6 5 4 6 4 4 5 4 4 4 6 2 5
4 7 3 4 4 6 9 9 12 12 15 16 16 17 17 17 19 17 17 15 15 15 12 12 11 11 10 7 8 7 6 7 6 6 6 5 4 7 5 3 4 4 2 3 1 5 5 3 6
5 8 6 5 5 7 5 8 6 13 14 15 16 17 18 19 17 17 17 16 15 14 15 15 12 12 9 9 8 8 7 6 5 5 5 6 5 4 4 4 2 4 2 4 2 6 6 6 5
14 12 11 3 3 6 7 11 5 7 13 16 18 17 18 17 16 16 16 16 17 16 15 15 14 12 11 8 8 6 5 5 4 4 6 5 5 4 4 4 2 3 4 3 5 5 7 6 2
16 15 11 5 9 11 7 16 7 5 7 11 15 17 18 18 18 17 17 17 16 16 16 16 16 14 11 8 6 6 5 1 1 3 4 4 4 4 2 1 4 3 6 5 5 5 5 7 5
20 14 9 8 7 9 0 12 7 6 7 12 15 18 18 19 18 17 18 16 16 15 13 14 15 15 12 10 7 9 5 5 0 3 2 4 5 3 2 1 2 4 5 4 4 5 7 4 7
16 6 9 9 11 13 15 9 9 5 7 6 12 16 19 18 18 17 15 14 14 13 13 13 13 13 12 10 9 8 7 4 2 3 4 4 5 4 3 2 3 4 4 4 5 6 7 7 5
15 9 12 11 13 14 17 8 11 5 2 7 4 9 17 19 18 17 15 12 11 12 12 12 14 13 13 11 11 9 6 6 4 5 5 5 5 5 3 3 3 4 2 4 4 5 6 7 6
10 16 12 13 14 12 5 8 11 10 10 5 6 2 12 18 18 17 17 15 14 15 15 13 15 15 15 13 12 11 10 9 7 7 6 5 5 4 5 3 2 2 3 3 4 4 4 6 7
14 17 13 15 13 14 6 9 12 3 8 5 6 3 7 15 16 18 17 16 16 17 16 16 17 16 15 13 12 11 10 7 6 6 5 4 4 4 5 4 3 3 2 1 2 2 6 5 6
13 14 16 19 7 10 5 5 8 14 8 9 7 4 8 11 16 18 18 16 15 16 17 17 17 15 14 13 11 12 11 7 6 8 6 5 4 6 5 3 3 1 1 2 3 4 5 6 6
17 10 13 11 15 15 13 9 9 7 11 10 9 4 7 10 13 15 15 15 13 14 14 14 15 15 14 12 11 10 10 9 9 8 6 5 5 4 5 4 2 1 1 2 4 4 6 6 6
12 13 11 11 13 14 12 9 4 5 10 10 11 3 4 8 13 15 15 13 11 12 14 14 14 15 13 11 10 10 10 10 11 10 9 7 6 4 3 2 1 4 5 4 4 5 5 6 6
10 20 18 10 15 12 13 12 11 7 13 9 10 2 2 3 10 13 15 14 14 12 11 11 12 13 12 11 10 10 9 9 9 9 10 8 6 4 1 1 3 3 4 4 5 6 6 6 7
Wind_Direction
156 168 167 231 219 75 58 64 72 96 110 51 118 52 62 28 5 56 133 135 138 138 133 149 140 132 132 125 121 122 123 124 124 121 124 129 124 123 113 117 125 110 103 100 96 86 100 95 99
146 143 217 278 296 70 78 65 69 58 67 125 113 126 79 82 58 131 134 143 148 138 145 140 136 139 132 133 130 126 126 128 123 123 125 123 122 126 128 126 113 114 108 110 107 104 92 92 102
172 255 282 308 22 51 79 67 97 93 103 131 103 36 40 65 122 138 128 145 150 142 143 117 144 138 132 132 126 126 129 126 127 130 137 130 125 121 136 137 120 123 120 112 104 105 99 98 104
213 189 216 19 61 78 58 93 129 106 97 53 87 83 91 78 134 128 142 148 145 145 141 130 146 143 135 129 142 136 127 121 120 132 132 149 148 135 137 138 122 119 114 113 117 117 110 102 104
252 243 301 81 81 80 77 56 167 86 86 106 140 95 99 117 116 135 145 154 144 146 131 147 156 153 143 141 134 136 135 138 148 138 145 139 155 160 133 122 121 108 117 119 118 125 121 118 112
257 270 28 46 61 79 90 137 213 65 90 110 110 115 87 121 142 145 150 151 149 146 148 137 155 155 145 145 152 151 147 157 160 141 136 136 145 144 133 151 145 132 143 135 133 126 122 125 122
291 311 19 7 49 73 87 157 242 77 111 103 133 111 115 145 143 150 153 151 145 155 147 150 161 153 155 150 158 149 153 148 145 152 155 154 159 160 150 155 158 159 162 130 151 151 138 158 171
285 286 357 62 20 70 118 119 125 108 74 120 125 143 160 149 154 154 155 155 151 157 151 150 162 163 171 161 167 165 159 161 164 174 154 162 173 193 174 200 208 209 209 201 177 183 189 197 224
274 267 17 28 14 65 142 139 98 85 135 105 73 128 128 145 156 156 160 160 158 172 165 169 167 175 177 171 149 175 174 178 176 179 171 201 272 314 53 66 233 238 235 257 244 230 226 230 232
279 335 4 352 44 66 150 163 133 154 140 137 108 107 130 150 160 165 168 163 176 176 178 178 174 172 162 193 139 191 174 193 195 181 146 273 176 234 294 281 232 252 255 258 242 247 259 239 248
18 357 347 22 62 136 130 133 128 130 191 159 149 143 151 157 166 172 175 172 178 175 183 184 181 166 178 189 175 174 180 187 175 202 218 164 174 156 225 257 236 222 186 265 242 218 237 289 244
301 12 2 38 141 130 144 122 143 123 15 109 144 156 157 166 173 176 178 176 175 183 187 188 180 178 202 178 196 192 194 196 210 189 212 217 226 172 280 281 234 208 253 67 340 318 312 293 274
327 357 40 100 128 121 136 137 100 105 88 117 140 157 166 170 174 177 176 171 179 186 189 191 191 187 192 205 199 225 216 195 213 206 201 246 267 260 221 230 271 288 156 207 204 203 258 282 259
341 346 76 103 118 132 147 156 189 128 125 134 152 164 170 173 171 169 178 178 184 189 189 193 198 188 196 202 207 221 228 232 246 249 243 239 268 276 288 263 242 230 230 228 219 207 262 265 261
320 243 154 116 163 126 174 176 194 144 151 149 162 171 172 175 174 177 181 187 186 191 185 198 199 191 199 204 200 211 225 219 236 240 235 262 263 255 275 274 288 279 281 242 222 235 238 265 261
278 244 240 83 210 127 239 96 137 163 168 164 166 175 182 181 183 184 187 188 200 201 196 198 201 196 192 201 201 218 217 235 243 244 250 243 252 257 265 269 285 329 287 291 262 248 243 247 263
215 281 350 123 186 298 249 354 133 176 184 174 176 178 186 190 193 189 196 189 189 202 193 219 201 208 193 194 209 220 222 231 245 251 262 252 271 285 284 267 305 300 295 248 245 246 257 269 268
170 244 167 26 57 240 280 276 157 189 197 188 184 185 191 197 198 196 198 201 202 180 187 203 210 209 198 196 207 219 221 232 243 255 264 270 235 255 246 263 298 286 313 251 329 284 281 298 292
259 270 277 101 41 301 287 305 295 177 202 201 200 191 195 201 197 194 198 201 206 209 191 197 198 196 191 200 202 207 217 226 243 261 266 267 241 196 224 272 249 248 290 314 309 282 299 287 264
238 250 245 270 219 299 294 295 358 196 204 211 206 201 202 200 202 198 198 203 205 208 210 198 200 191 195 203 213 221 223 232 263 278 285 246 203 195 225 298 298 313 297 293 313 300 293 260 314
239 248 254 301 315 267 275 263 183 156 220 219 218 216 204 204 199 198 197 202 208 206 206 206 201 194 194 210 202 197 214 229 247 252 252 218 214 191 243 323 346 322 295 339 322 320 303 315 320
242 216 259 252 265 277 204 295 221 151 211 209 216 218 214 203 203 204 197 195 206 207 202 200 201 207 201 194 208 216 212 215 177 240 172 177 171 171 191 74 7 3 335 354 336 355 331 346 348
248 226 254 261 265 262 261 250 278 184 273 205 211 213 217 204 206 203 207 198 198 194 189 187 186 194 207 195 217 195 205 195 188 184 173 131 140 167 128 43 27 14 333 43 11 351 355 321 317
247 216 235 248 258 260 255 245 274 245 330 323 143 210 208 207 205 202 202 188 185 181 179 177 179 182 183 188 192 198 194 208 191 177 185 168 159 147 108 82 44 26 359 46 30 2 20 353 338
219 226 236 230 231 245 246 244 257 315 295 317 342 209 206 197 194 200 195 188 181 182 178 174 178 179 178 183 184 189 192 199 198 188 178 157 145 154 128 119 77 82 72 61 20 26 22 12 355
217 235 233 232 239 245 139 251 258 336 317 278 290 233 192 200 190 199 192 192 185 186 179 177 179 179 175 180 181 178 186 187 186 190 140 170 156 143 134 111 70 44 104 88 18 21 353 16 354
193 235 249 268 242 282 272 209 253 256 294 269 274 237 194 193 193 192 192 190 192 185 181 182 176 176 178 178 179 175 175 191 156 148 163 150 153 129 136 131 111 61 158 315 324 35 350 340 353
260 269 208 229 255 240 250 237 278 283 306 308 343 316 203 175 187 191 188 185 184 179 176 180 174 176 179 173 176 177 174 171 158 153 176 165 140 132 153 162 181 327 344 302 310 325 51 350 1
197 233 239 276 225 258 251 247 262 320 298 328 322 350 339 183 180 183 180 180 161 166 167 174 170 171 175 169 173 171 173 171 165 162 163 169 170 157 170 188 321 346 344 1 336 336 19 353 2
276 212 232 223 227 239 279 291 304 286 289 291 304 42 28 278 171 180 176 159 147 150 152 160 160 161 161 151 154 172 155 166 175 171 163 161 168 176 146 48 43 46 26 15 358 353 12 8 5